This is the latest recevied weather packets stored in our database for station/object N5SRF. If no packets are shown the sender has not sent any weather packets the latest 10 day(s).
| Time | Temp. | Humidity | Pressure | Rain* | Wind** | Luminosity | Snow |
|---|---|---|---|---|---|---|---|
| 1777942845 | 22.78° C | 79% | 1013.9 hPa | 0 mm | - | 1 W/m² | - |
| 1777942541 | 22.78° C | 78% | 1014.1 hPa | 0 mm | - | 3 W/m² | - |
| 1777942238 | 22.78° C | 78% | 1014.2 hPa | 0 mm | - | 4 W/m² | - |
| 1777941935 | 22.78° C | 77% | 1014.3 hPa | 0 mm | - | 7 W/m² | - |
| 1777941632 | 22.78° C | 77% | 1014.2 hPa | 0 mm | - | 10 W/m² | - |
| 1777941329 | 22.78° C | 77% | 1014.4 hPa | 0 mm | - | 15 W/m² | - |
| 1777941026 | 22.78° C | 77% | 1014.2 hPa | 0 mm | - | 21 W/m² | - |
| 1777940721 | 23.33° C | 76% | 1014.4 hPa | 0 mm | - | 26 W/m² | - |
| 1777940421 | 23.33° C | 75% | 1014.2 hPa | 0 mm | - | 32 W/m² | - |
| 1777940117 | 23.33° C | 75% | 1014.3 hPa | 0 mm | - | 35 W/m² | - |
| 1777939814 | 23.89° C | 75% | 1014.4 hPa | 0 mm | - | 42 W/m² | - |
| 1777939512 | 23.89° C | 74% | 1014.2 hPa | 0 mm | - | 50 W/m² | - |
| 1777939209 | 23.89° C | 74% | 1014.4 hPa | 0 mm | - | 64 W/m² | - |
| 1777938906 | 23.89° C | 74% | 1014.1 hPa | 0 mm | - | 81 W/m² | - |
| 1777938602 | 23.89° C | 74% | 1014.2 hPa | 0 mm | - | 88 W/m² | - |
| 1777938300 | 24.44° C | 73% | 1014.1 hPa | 0 mm | - | 82 W/m² | - |
| 1777937996 | 24.44° C | 72% | 1014.1 hPa | 0 mm | - | 78 W/m² | - |
| 1777937691 | 24.44° C | 72% | 1014.2 hPa | 0 mm | - | 83 W/m² | - |
| 1777937389 | 24.44° C | 71% | 1014.6 hPa | 0 mm | - | 104 W/m² | - |
| 1777937086 | 24.44° C | 71% | 1014.4 hPa | 0 mm | - | 114 W/m² | - |
| 1777936783 | 25° C | 72% | 1014.5 hPa | 0 mm | - | 109 W/m² | - |
| 1777936479 | 25° C | 70% | 1014.9 hPa | 0 mm | - | 118 W/m² | - |
| 1777936175 | 25° C | 70% | 1014.8 hPa | 0 mm | - | 158 W/m² | - |
| 1777935872 | 25.56° C | 70% | 1014.7 hPa | 0 mm | - | 113 W/m² | - |
| 1777935572 | 25.56° C | 70% | 1014.8 hPa | 0 mm | - | 167 W/m² | - |
* Rain latest hour (hover to see other rain measurements)
** Current wind speed in m/s (hover to see current wind gust speed)